sat.trackr.live / text

‹ back to catalog

SITRO-AIS 23

NORAD 61742 · 2024-199H

PAYLOAD ACTIVE UNKNOWN

§ Identity

Operator
Country
CIS
Launch date
2024-11-04
Launch site
VOSTO
Launch vehicle
Mass (kg)
RCS (m²)

External: N2YO · Heavens-Above · Gunter

§ Orbital elements

Epoch: 2026-09-22T19:17:44.913120Z

Period
96.24 min
Inclination
97.3208°
Eccentricity
0.0013767
Mean motion
14.96304680 rev/d
Perigee alt
568.7 km
Apogee alt
587.9 km
Semi-major
6,956.5 km
B*
1.4931e-4
RAAN
97.5636°
Arg perigee
93.6581°
Mean anomaly
266.6216°
Rev number
14,636

§ Raw data

SITRO-AIS 231 61742U 24199H   26265.80399205  .00001638  00000+0  14931-3 0  99902 61742  97.3208  97.5636 0013767  93.6581 266.6216 14.96304680146363

JSON: /api/v1/satellites/61742 · /tle

For live sub-satellite position, see the globe view (requires WebGL).

§ Visibility from observer

Set your observer location to see the next 7 days of passes ≥ 10°. The values pass through the URL so the page stays shareable.

No JS? Fill the form by hand. The geolocation button needs JavaScript.

§ Radio — SatNOGS DB

ModeDescriptionDownlinkUplink
GMSK USP Mode U - GMSK2k4 - USP 401.215 MHz

1 transmitter · refreshed weekly from db.satnogs.org